Location: *
(30.9908°N, 8.9772°W)
Time: 20:47:03
(UTC+00:00)

Daily predictions for brighter satellites

Satellite Brightness Start Highest point End
(mag) Time Altitude Azimuth Time Altitude Azimuth Time Altitude Azimuth
Cosmos 2297 4.3 18:12:19 10° S 18:17:27 37° ESE 18:22:39 10° NE
ASTEX 1 3.5 18:15:32 10° NNE 18:20:27 60° E 18:25:22 10° S
NOSS 3-2 (C) 3.3 18:15:32 10° SSW 18:20:59 63° ESE 18:26:59 10° NE
Cosmos 1535 Rocket 4.4 18:15:29 10° N 18:21:39 76° E 18:27:43 10° S
Lacrosse 5 3.4 18:18:10 10° N 18:21:42 19° NE 18:25:12 10° E
CZ-4 R/B 2.5 18:19:12 10° SE 18:22:34 24° ENE 18:25:58 10° NNE
Shenzhou-11 Module 3.5 18:20:56 10° NNW 18:23:01 19° NNE 18:25:06 10° ENE
OAO 3 Rocket 3.3 18:18:16 10° WNW 18:23:09 81° NNE 18:28:06 10° ESE
Cosmos 482 Debris 4.0 18:19:06 10° NW 18:23:48 69° NE 18:26:38 10° SE
SKYMED 2 3.7 18:20:57 10° NNE 18:25:14 57° E 18:29:28 10° S
Cosmos 1461 3.5 18:30:32 10° N 18:34:23 35° ENE 18:38:21 10° SE
Cosmos 1777 Rocket 3.9 18:29:28 10° N 18:34:40 70° ENE 18:39:49 10° SSE
Cosmos 44 3.4 18:32:38 10° SSW 18:37:43 88° WNW 18:42:34 10° NNE
Meteor 1-11 4.2 18:33:47 10° N 18:39:36 78° E 18:45:24 10° SSE
Cosmos 1763 Rocket 4.4 18:35:42 10° SSE 18:40:10 28° E 18:44:38 10° NE
USA 116 3.8 18:36:50 10° NNE 18:40:14 47° ESE 18:44:00 10° S
EO 1 Delta rocket 4.3 18:36:39 10° SE 18:40:51 37° ENE 18:45:19 10° N
ATLAS 3B R/B 2.7 18:36:33 10° SSW 18:43:14 61° ESE 18:49:48 10° NE
Cosmos 1833 Rocket 2.7 18:41:50 10° N 18:47:23 57° ENE 18:52:53 10° SSE
CENTAUR R/B 2.3 18:43:26 10° SSW 18:48:58 72° ESE 18:55:22 10° NNE
Cosmos 1300 2.6 18:48:41 10° S 18:52:26 65° E 18:56:14 10° NNE
USA 215 4.1 18:47:28 10° SSE 18:53:47 52° SW 19:00:09 10° NW
BREEZE-M DEB (TANK) 3.3 18:48:47 10° NW 18:56:28 74° SW 18:58:57 12° SE
OAO 2 Rocket 4.3 18:53:52 10° W 18:58:51 45° SSW 19:03:52 10° SE
Envisat 3.2 18:55:53 10° S 19:00:56 76° WSW 19:06:01 10° NNW
Cosmos 2369 Rocket 3.2 18:59:21 10° SSE 19:03:39 23° E 19:04:06 22° E
Delta 2 Rocket 4.2 18:57:45 10° WSW 19:03:43 57° S 19:07:35 22° ESE
Cosmos 44 Rocket 4.0 19:00:40 10° S 19:05:09 33° ESE 19:07:01 25° ENE
CZ-4 R/B 4.4 19:02:40 10° S 19:06:47 85° W 19:10:54 10° NNW
Cosmos 1153 Rocket 4.4 19:01:27 10° N 19:07:34 72° E 19:13:43 10° SSE
CZ-2D R/B 3.9 19:07:03 31° E 19:07:35 32° ENE 19:11:03 10° N
SWIFT 4.5 19:06:00 10° SSW 19:08:25 15° S 19:10:00 13° SE
CSL-04 Debris 4.1 19:03:58 10° SSE 19:09:22 70° ENE 19:14:49 10° N
COSMO-SKYMED 1 4.3 19:09:15 10° N 19:13:10 35° WNW 19:17:07 10° SW
Meteosat 1 Rocket2 2.9 19:12:41 10° W 19:16:33 55° S 19:17:36 38° SE
Cosmos 1943 Rocket 2.6 19:14:11 10° S 19:19:14 37° ESE 19:20:37 32° ENE
Cosmos 1898 Rocket 4.2 19:15:20 10° N 19:19:54 32° ENE 19:19:54 32° ENE
Cosmos 2058 3.0 19:16:51 10° N 19:20:58 52° E 19:23:24 22° SSE
Cosmos 1939 Rocket 3.1 19:22:35 45° ENE 19:22:35 45° ENE 19:26:10 10° N
Cosmos 2082 Rocket 2.1 19:17:08 10° NNW 19:22:50 80° ENE 19:28:28 10° SSE
Centaur D-1A AC-31 3.0 19:23:16 10° S 19:24:22 13° SSE 19:24:22 13° SSE
Cosmos 1076 Rocket 3.5 19:23:34 10° N 19:27:55 84° W 19:32:12 10° S
IRS-1A Rocket 4.5 19:30:22 41° E 19:31:08 44° ENE 19:36:20 10° N
Delta 2 Rocket 3.8 19:30:01 10° WNW 19:33:00 37° NNW 19:33:00 37° NNW
BREEZE-M DEB (TANK) 3.8 19:30:26 10° SW 19:33:57 79° NW 19:42:40 15° NE
Cosmos 1459 Rocket 3.9 19:29:11 10° N 19:35:27 68° E 19:41:45 10° SSE
Ariane Rocket 2.8 19:42:26 51° SE 19:43:36 69° ENE 19:48:40 10° N
In-Cosmos 22 Rocket 4.0 19:39:00 10° N 19:44:30 77° E 19:50:08 10° SSE
DMSP B5D2-7 4.5 19:45:03 31° SSE 19:47:44 77° ENE 19:53:10 10° N
Cosmos 2061 Rocket 3.9 19:43:21 10° N 19:49:31 63° E 19:51:09 47° SE
YAOGAN 1 4.3 19:48:25 10° SSW 19:52:19 33° W 19:56:14 10° NNW
SEDSat Delta rocket 3.3 19:50:20 10° WSW 19:55:09 70° SSW 19:55:09 70° SSW
CZ-4 R/B 4.1 19:54:22 10° SW 19:57:27 20° W 20:00:36 10° NW
Cosmos 841 Rocket 3.6 19:58:12 10° SSW 20:03:25 75° WNW 20:03:52 69° NNW
ADEOS Rocket 3.8 19:56:56 10° NNE 20:06:23 43° SSE 20:10:46 10° S
Lacrosse 5 2.2 20:00:01 10° NW 20:05:00 62° SW 20:05:02 62° SW
Cosmos 2173 Rocket 4.3 20:00:08 10° NNW 20:06:15 64° W 20:12:15 10° S
OAO 3 Rocket 4.5 20:02:05 10° W 20:06:30 34° SSW 20:06:34 34° SSW
Cosmos 2123 Rocket 4.1 20:05:41 10° S 20:11:58 74° W 20:18:15 10° N
BREEZE-M DEB (TANK) 3.9 20:06:43 10° SW 20:11:17 38° SW 20:11:17 38° SW
Cosmos 540 Rocket 4.5 20:10:43 10° SSW 20:13:54 38° SSW 20:13:54 38° SSW
Cosmos 1802 Rocket 4.5 20:14:46 10° NNW 20:21:03 60° W 20:27:14 10° S
Cosmos 2369 Rocket 3.7 20:42:10 10° SW 20:46:01 33° W 20:46:01 33° W
Cosmos 2344 4.0 20:52:16 10° SW 20:58:43 54° W 20:58:43 54° W
Cosmos 1943 Rocket 4.3 20:58:42 10° WSW 21:02:15 22° WNW 21:02:15 22° WNW
ATLAS 5 CENTAUR R/B 4.5 21:15:56 10° SW 22:12:50 17° E 22:31:02 10° E
